Location: Crescent
(42.8242°N, 73.7329°W)
Time: 19:43:21
(UTC+00:00)

Explorer 7 - Pass Details

Date: 22 February 2026
Orbit: 430 x 541 km, 50.2° (Epoch: 10 March)

Event Time Altitude Azimuth Distance (km) Brightness Sun altitude
Rises 21:05:53 0° 291° (WNW) 2,447 10.7 14.5°
Reaches altitude 10° 21:08:15 10° 306° (NW) 1,593 9.6 14.1°
Maximum altitude 21:11:16 25° 3° (N) 988 7.9 13.6°
Drops below altitude 10° 21:14:23 10° 60° (ENE) 1,647 8.7 13.1°
Sets 21:16:52 0° 74° (ENE) 2,550 9.6 12.7°
